Weather History for Denver, CO

Change the Weather History Date:

Wednesday, July 24, 2013

  Actual Average Record
Temperature  
Mean Temperature 72 °F 75 °F  
Max Temperature 85 °F 90 °F 100 °F (2003)
Min Temperature 59 °F 60 °F 49 °F (2004)
Degree Days  
Heating Degree Days 0 0  
Month to date heating degree days 0 1  
Since 1 June heating degree days 29 63  
Since 1 July heating degree days 0 1  
Cooling Degree Days 7 10  
Month to date cooling degree days 256 219  
Year to date cooling degree days 519 374  
Since 1 June cooling degree days 477 352  
Growing Degree Days 22 (Base 50)    
Moisture  
Dew Point 55 °F    
Average Humidity 53    
Maximum Humidity 78    
Minimum Humidity 28    
Precipitation  
Precipitation 0.00 in 0.08 in 1.06 in (1973)
Month to date precipitation 1.48 1.61  
Year to date precipitation 7.47 9.12  
Snow  
Snow 0.00 in - - ()
Month to date snowfall 0  
Since 1 June snowfall 0  
Since 1 July snowfall 0  
Snow Depth 0.00 in    
Sea Level Pressure  
Sea Level Pressure 29.94 in    
Wind  
Wind Speed 15 mph (SSE)    
Max Wind Speed 38 mph    
Max Gust Speed 47 mph    
Visibility 10 miles    
Events      
T = Trace of Precipitation, MM = Missing Value Source: NWS Daily Summary

Daily Weather History Graph

Daily Weather History Graph

Search for Another Location

Airport:

Trip Planner

Search our weather history database for the weather conditions in past years. The results will help you decide how hot, cold, wet, or windy it might be!

Date:

Astronomy

Jul. 24, 2013 Rise Set
Actual Time 5:50 AM MDT 8:19 PM MDT
Civil Twilight 5:19 AM MDT 8:50 PM MDT
Nautical Twilight 4:41 AM MDT 9:28 PM MDT
Astronomical Twilight 3:58 AM MDT 10:10 PM MDT
Moon 9:27 PM MDT (7/24) 8:13 AM MDT (7/24)
Length of Visible Light 15h 30m
Length of Day
14h 28m
Waning Gibbous, 94% of the Moon is Illuminated
Jul 24
Waning Gibbous
Jul 29
Last Quarter
Aug 6
New
Aug 14
First Quarter
Aug 20
Full

Hourly Weather History & Observations

Time (MDT) Temp. Heat Index Dew Point Humidity Pressure Visibility Wind Dir Wind Speed Gust Speed Precip Events Conditions
12:53 AM 69.1 °F - 54.0 °F 58% 29.94 in 10.0 mi ESE 9.2 mph - N/A   Scattered Clouds
1:53 AM 71.1 °F - 55.9 °F 59% 29.92 in 10.0 mi SSE 18.4 mph 24.2 mph N/A   Scattered Clouds
2:53 AM 69.1 °F - 55.9 °F 63% 29.92 in 10.0 mi SSE 15.0 mph 24.2 mph N/A   Scattered Clouds
3:53 AM 69.1 °F - 57.9 °F 68% 29.90 in 10.0 mi South 15.0 mph 25.3 mph N/A   Scattered Clouds
4:53 AM 69.1 °F - 57.9 °F 68% 29.92 in 10.0 mi SW 18.4 mph 28.8 mph N/A   Scattered Clouds
5:53 AM 66.9 °F - 57.9 °F 73% 29.95 in 10.0 mi South 8.1 mph - N/A   Scattered Clouds
6:53 AM 66.9 °F - 59.0 °F 76% 29.95 in 10.0 mi SSE 6.9 mph - N/A   Mostly Cloudy
7:53 AM 73.0 °F - 59.0 °F 61% 29.95 in 10.0 mi Calm Calm - N/A   Mostly Cloudy
8:53 AM 75.0 °F - 60.1 °F 60% 29.96 in 10.0 mi Variable 3.5 mph - N/A   Mostly Cloudy
9:53 AM 79.0 °F - 59.0 °F 50% 29.96 in 10.0 mi SSE 21.9 mph 27.6 mph N/A   Mostly Cloudy
10:53 AM 79.0 °F - 59.0 °F 50% 29.96 in 10.0 mi South 19.6 mph 25.3 mph N/A   Mostly Cloudy
11:53 AM 82.0 °F 82.0 °F 57.9 °F 44% 29.96 in 10.0 mi SSE 19.6 mph 29.9 mph N/A   Mostly Cloudy
12:53 PM 84.0 °F 83.3 °F 57.0 °F 40% 29.91 in 10.0 mi SE 13.8 mph 20.7 mph N/A   Mostly Cloudy
1:53 PM 82.0 °F 82.0 °F 57.9 °F 44% 29.91 in 10.0 mi South 21.9 mph 26.5 mph N/A   Mostly Cloudy
2:53 PM 79.0 °F - 59.0 °F 50% 29.92 in 10.0 mi South 16.1 mph 24.2 mph N/A   Mostly Cloudy
3:53 PM 80.1 °F 80.7 °F 59.0 °F 48% 29.92 in 10.0 mi WSW 9.2 mph - N/A   Mostly Cloudy
4:40 PM 78.8 °F - 51.8 °F 39% 30.17 in 7.0 mi SSW 33.4 mph 44.9 mph N/A   Widespread Dust
4:53 PM 77.0 °F - 48.9 °F 37% 29.93 in 7.0 mi SSW 36.8 mph 44.9 mph N/A   Mostly Cloudy
5:53 PM 79.0 °F - 48.9 °F 35% 29.89 in 10.0 mi SSW 20.7 mph - N/A   Mostly Cloudy
6:53 PM 80.1 °F - 44.1 °F 28% 29.88 in 10.0 mi South 15.0 mph - N/A   Mostly Cloudy
7:53 PM 75.0 °F - 48.0 °F 38% 29.88 in 10.0 mi SSE 9.2 mph 18.4 mph N/A   Mostly Cloudy
8:53 PM 72.0 °F - 48.0 °F 43% 29.90 in 10.0 mi SE 20.7 mph 26.5 mph N/A   Mostly Cloudy
9:53 PM 71.1 °F - 48.9 °F 45% 29.92 in 10.0 mi SE 12.7 mph - N/A   Mostly Cloudy
10:53 PM 66.9 °F - 52.0 °F 59% 29.96 in 10.0 mi East 16.1 mph - N/A   Overcast
11:00 PM 68.0 °F - 51.8 °F 56% 30.20 in 10.0 mi ENE 24.2 mph 34.5 mph N/A   Overcast
11:53 PM 60.1 °F - 54.0 °F 80% 29.97 in 10.0 mi East 15.0 mph 24.2 mph N/A   Overcast